• Processing (Info)

  • MPEC 2015-E56 : 2006 CU10

    The following Minor Planet Electronic Circular may be linked-to from your own Web pages, but must not otherwise be redistributed electronically.

    A form allowing access to any MPEC is at the bottom of this page.


    Read MPEC 2015-E55 Read MPEC 2015-F01


    M.P.E.C. 2015-E56                                Issued 2015 Mar. 15, 15:57 UT
    
         The Minor Planet Electronic Circulars contain information on unusual
             minor planets and routine data on comets.  They are published
       on behalf of Commission 20 of the International Astronomical Union by the
              Minor Planet Center, Smithsonian Astrophysical Observatory,
                              Cambridge, MA 02138, U.S.A.
    
                 Prepared using the Tamkin Foundation Computer Network
    
                                  MPC@CFA.HARVARD.EDU
                URL https://www.minorplanetcenter.net/    ISSN 1523-6714
    
                                       2006 CU10
    
                               Revision to MPEC 2006-C52
    
    Additional Observations:
         K06C10U  C2015 02 26.22989 10 07 10.50 +30 23 50.4          20.0 rREE056G45
         K06C10U  C2015 02 26.33312 10 06 52.78 +30 31 19.1          20.4 rREE056G45
         K06C10U  C2015 02 26.33983 10 06 51.73 +30 31 48.3          20.7 rREE056G45
         K06C10U  C2015 02 26.34397 10 06 50.97 +30 32 05.7          20.5 rREE056G45
         K06C10U  C2015 02 26.34805 10 06 50.24 +30 32 23.5          20.7 rREE056G45
         K06C10U  C2015 02 26.35627 10 06 48.84 +30 32 58.8          20.2 rREE056G45
         K06C10U  C2015 02 26.36035 10 06 48.24 +30 33 16.7          19.9 rREE056G45
         K06C10U  C2015 02 27.23708 10 04 22.04 +31 36 32.4          20.0 VqEE056G96
         K06C10U  C2015 02 27.24547 10 04 20.58 +31 37 09.1          19.7 VqEE056G96
         K06C10U  C2015 02 27.25386 10 04 19.08 +31 37 44.9          20.0 VqEE056G96
         K06C10U  C2015 02 27.26226 10 04 17.58 +31 38 21.4          20.1 VqEE056G96
         K06C10U  C2015 02 27.33438 10 04 04.93 +31 43 32.2          20.0 VqEE056G96
         K06C10U  C2015 02 27.33813 10 04 04.27 +31 43 48.7          20.1 VqEE056G96
         K06C10U  C2015 02 27.34188 10 04 03.62 +31 44 04.7          20.2 VqEE056G96
         K06C10U  C2015 02 27.34565 10 04 02.94 +31 44 21.0          20.2 VqEE056G96
    
    Observer details:
    G45 Space Surveillance Telescope, Atom Site.  Observers L. Banks, M. Blythe,
        R. Brungard, P. Festler, T. McVey, J. Paige, W. Robertson, G. Spitz.
        Measurers C. Byun, M. Cornell, M. Goldberg, A. Klein, J. Ruprecht,
        G. Ushomirsky, J. Varey, H. Viggh, D. Woods.  3.5-m f/1 reflector + CCD.
    G96 Mt. Lemmon Survey.  Observers R. A. Kowalski, R. G. Matheny.  Measurers
        E. J. Christensen, D. C. Fuls, A. R. Gibbs, A. D. Grauer, R. E. Hill,
        J. A. Johnson, R. A. Kowalski, S. M. Larson, R. G. Matheny, F. C. Shelly.
        1.5-m reflector + CCD.
    
    Orbital elements:
    2006 CU10                                                Earth MOID = 0.0911 AU
    Epoch 2015 June 27.0 TT = JDT 2457200.5                 MPC
    M 355.67735              (2000.0)            P               Q
    n   0.54914806     Peri.  130.58900     +0.26655859     +0.86710547
    a   1.4768728      Node   146.29516     -0.93815921     +0.13335425
    e   0.4472578      Incl.   49.31623     +0.22091585     -0.47994244
    P   1.79           H   19.8           G   0.15           U   4
    Residuals in seconds of arc
    060207 291  0.7+  0.7-    060217 J95  0.2-  0.2+    150226 G45  0.8+  0.0
    060207 291  0.2+  0.1-    060217 J95  0.0   0.5+    150226 G45  0.2+  0.5-
    060207 291  0.0   1.4+    060222 291  0.3+  0.5+    150226 G45  0.2-  0.3-
    060207 291  0.2+  0.5+    060222 291  0.3+  0.1-    150226 G45  0.1-  0.5-
    060207 291  0.4+  0.1-    060222 291  0.4+  0.1+    150226 G45  1.1+  0.3-
    060207 291  1.5+  0.4+    060224 291  0.0   0.7+    150227 G96  0.2+  0.0
    060208 291  0.4+  1.3-    060224 291  0.1-  0.4+    150227 G96  0.3+  0.4+
    060208 291  0.3+  0.2+    060224 291  0.1+  0.7+    150227 G96  0.0   0.1-
    060208 291  0.6+  0.3-    060228 J95  0.3+  0.0     150227 G96  0.4-  0.1+
    060215 J95  1.1-  0.5-    060301 J95  0.2+  0.0     150227 G96  0.0   0.1-
    060215 J95  0.3-  0.5-    060301 J95  0.3-  0.3-    150227 G96  0.0   0.2+
    060217 J95  0.6-  0.5-    150226 G45  0.3-  0.6-    150227 G96  0.1+  0.1+
    060217 J95  0.2-  0.5+    150226 G45  0.5-  0.1-    150227 G96  0.1-  0.2+
    
    Ephemeris:
    2006 CU10                a,e,i = 1.48, 0.45, 49                  q = 0.8163
    Date    TT    R. A. (2000) Decl.     Delta      r     Elong.  Phase     V
    2015 02 13    10 37 00.7 +14 57 44   0.6468  1.6242   167.1     7.8    20.5
    ...
    2015 02 28    10 02 11.5 +32 31 13   0.5837  1.5367   154.0    16.4    20.4
    ...
    2015 03 08    09 37 29.1 +41 31 04   0.5932  1.4873   138.0    26.5    20.7
    ...
    2015 03 14    09 17 33.4 +47 13 40   0.6159  1.4491   126.7    33.4    20.9
    2015 03 15    09 14 12.7 +48 04 34   0.6208  1.4426   125.0    34.4    21.0
    2015 03 16    09 10 52.6 +48 53 40   0.6258  1.4361   123.2    35.4    21.0
    ...
    2015 03 22    08 51 24.1 +53 11 38   0.6604  1.3967   113.4    40.9    21.2
    ...
    2015 03 30    08 28 17.2 +57 30 42   0.7132  1.3428   102.1    46.6    21.5
    ...
    2015 04 14    07 58 07.4 +62 47 41   0.8121  1.2387    85.4    53.8    21.8
    
    Gareth V. Williams           (C) Copyright 2015 MPC           M.P.E.C. 2015-E56
    

    Read MPEC 2015-E55 Read MPEC 2015-F01


    MPEC number:

    Enter an MPEC number in one of the following forms:

    • 1997-B01 (the full form)
    • J97B01 (the packed version of the full form)
    • B01 (the abbreviated form)